Location: ????????
(55.6333°N, 37.7000°E)
Time: 07:06:26
(UTC+00:00)

Cosmos 1842 - Pass Details

Date: 19 May 2025
Orbit: 439 x 450 km, 82.5° (Epoch: 23 June)

Event Time Altitude Azimuth Distance (km) Brightness Sun altitude
Exits shadow 20:33:32 23° 144° (SE) 1,000 4.1 -13.6°
Maximum altitude 20:35:05 37° 94° (E) 729 3.8 -13.6°
Drops below altitude 10° 20:38:20 10° 26° (NNE) 1,603 6.5 -13.7°
Sets 20:40:30 0° 18° (NNE) 2,483 7.8 -13.8°
